DW3212 Weather Reports


time (UTC)temp
F
wind
direction
speed
knots
gust
knots
rain 1hr
in
rain 24hr
in
rain mn
in
humidity
%
barometer
mb
20260504011556 41 0.0 0.0 0.00 0.00 0.00 48 1007.9
20260504010056 42 0.0 0.0 0.00 0.00 0.00 46 1007.8
20260504004556 42 0.0 0.0 0.00 0.00 0.00 43 1007.6
20260504003056 42 0.0 0.0 0.00 0.00 0.00 42 1007.5
20260504001559 41 0.0 0.0 0.00 0.00 0.00 43 1007.1
20260504000059 42 0.0 0.0 0.00 0.00 0.00 43 1007.0
20260503234623 42 0.0 0.0 0.00 0.00 0.00 43 1006.8
20260503233053 42 0.0 0.0 0.00 0.00 0.00 44 1006.8
20260503231558 43 0.0 0.0 0.00 0.00 0.00 44 1006.6
20260503230056 43 0.0 0.0 0.00 0.00 0.00 43 1006.6
20260503224554 44 0.0 0.0 0.00 0.00 0.00 42 1006.6
20260503223054 44 0.0 0.0 0.00 0.00 0.00 43 1006.6
20260503221601 43 0.0 0.0 0.00 0.00 0.00 45 1006.5
20260503220059 44 0.0 0.0 0.00 0.00 0.00 44 1006.5
20260503214556 45 0.0 0.0 0.00 0.00 0.00 43 1006.6
20260503213057 46 0.0 0.0 0.00 0.00 0.00 45 1006.6
20260503211559 44 0.0 0.0 0.00 0.00 0.00 46 1006.5
20260503210054 44 0.0 0.0 0.00 0.00 0.00 46 1006.5
20260503204557 43 0.0 0.0 0.00 0.00 0.00 45 1006.4
20260503203058 43 0.0 0.0 0.00 0.00 0.00 47 1006.5
20260503201554 44 0.0 0.0 0.00 0.00 0.00 45 1006.6
20260503200057 45 0.0 0.0 0.00 0.00 0.00 44 1006.6
20260503194559 44 0.0 0.0 0.00 0.00 0.00 44 1006.6
20260503193056 44 0.0 0.0 0.00 0.00 0.00 44 1006.7
20260503191555 44 0.0 0.0 0.00 0.00 0.00 44 1007.0
20260503190056 44 0.0 0.0 0.00 0.00 0.00 47 1006.9
20260503184558 43 0.0 0.0 0.00 0.00 0.00 44 1006.8
20260503183058 43 0.0 0.0 0.00 0.00 0.00 48 1006.8
20260503181600 45 0.0 0.0 0.00 0.00 0.00 48 1006.8
20260503180107 45 0.0 0.0 0.00 0.00 0.00 51 1006.8
20260503174559 42 0.0 0.0 0.00 0.00 0.00 52 1006.8
20260503173107 43 0.0 0.0 0.00 0.00 0.00 49 1006.6
20260503171553 43 0.0 0.0 0.00 0.00 0.00 46 1006.6
20260503140107 39 0.0 0.0 0.00 0.00 0.00 64 1007.3
20260503110110 34 0.0 0.0 0.00 0.03 0.00 86 1006.9
20260503081556 34 0.0 0.0 0.00 0.05 0.00 79 1007.2
20260503071612 34 0.0 0.0 0.00 0.08 0.00 75 1007.8
20260503060118 34 0.0 0.0 0.00 0.09 0.00 70 1008.2
20260503054601 34 0.0 0.0 0.00 0.11 0.00 70 1008.3
20260503053059 34 0.0 0.0 0.00 0.11 0.00 69 1008.8
20260503051556 34 0.0 0.0 0.00 0.11 0.00 68 1008.8
20260503050056 34 0.0 0.0 0.00 0.11 0.00 69 1009.1
20260503044600 34 0.0 0.0 0.00 0.13 0.00 70 1009.2
20260503043105 34 0.0 0.0 0.00 0.13 0.00 69 1009.3
20260503041558 34 0.0 0.0 0.00 0.13 0.00 67 1009.6
20260503040118 34 0.0 0.0 0.00 0.13 0.00 69 1009.7
20260503034557 34 0.0 0.0 0.00 0.13 0.13 68 1009.9
20260503033058 34 0.0 0.0 0.00 0.13 0.13 66 1009.9
20260503031604 34 0.0 0.0 0.00 0.13 0.13 64 1009.9
20260503030056 35 0.0 0.0 0.00 0.13 0.13 64 1009.9
20260503024554 35 0.0 0.0 0.00 0.13 0.13 64 1010.0
20260503023056 35 0.0 0.0 0.00 0.13 0.13 61 1010.0
20260503021556 36 0.0 0.0 0.00 0.13 0.13 60 1010.1
20260503020055 36 0.0 0.0 0.00 0.13 0.13 62 1010.2
20260503014609 36 0.0 0.0 0.00 0.13 0.13 61 1010.3
20260503013058 36 0.0 0.0 0.00 0.13 0.13 62 1010.1